TimeEDT,TemperatureF,Dew PointF,Humidity,Sea Level PressureIn,VisibilityMPH,Wind Direction,Wind SpeedMPH,Gust SpeedMPH,PrecipitationIn,Events,Conditions,WindDirDegrees,DateUTC
12:00 AM,44.6,42.8,93,30.05,15.0,North,4.6,-,N/A,Rain,Light Rain,350,2013-05-26 04:00:00
1:00 AM,42.8,42.8,100,30.04,15.0,WNW,4.6,-,N/A,Rain,Light Rain,290,2013-05-26 05:00:00
2:00 AM,44.6,41.0,87,30.00,15.0,NNW,10.4,-,N/A,Rain,Light Rain,330,2013-05-26 06:00:00
3:00 AM,42.8,41.0,93,29.99,15.0,North,10.4,-,N/A,Rain,Light Rain,350,2013-05-26 07:00:00
4:00 AM,42.8,41.0,93,29.98,10.0,North,11.5,-,N/A,Rain,Light Rain,360,2013-05-26 08:00:00
5:00 AM,42.8,41.0,93,29.97,15.0,NNW,9.2,-,N/A,Rain,Light Rain,340,2013-05-26 09:00:00
6:00 AM,42.8,39.2,87,29.98,15.0,North,11.5,18.4,N/A,Rain,Light Rain,350,2013-05-26 10:00:00
7:00 AM,42.8,41.0,93,29.99,15.0,NNW,8.1,-,N/A,Rain,Light Rain,340,2013-05-26 11:00:00
8:00 AM,44.6,41.0,87,29.99,15.0,NNW,13.8,23.0,N/A,Rain,Light Rain,340,2013-05-26 12:00:00
9:00 AM,46.4,39.2,76,30.00,15.0,North,16.1,23.0,N/A,Rain,Light Rain,350,2013-05-26 13:00:00
10:00 AM,46.4,41.0,81,30.01,12.0,NNW,11.5,19.6,N/A,Rain,Light Rain,340,2013-05-26 14:00:00
11:00 AM,46.4,42.8,87,30.02,12.0,NNW,11.5,20.7,N/A,Rain,Light Rain,330,2013-05-26 15:00:00
12:00 PM,50.0,42.8,76,30.03,15.0,NNW,16.1,31.1,N/A,Rain,Light Rain,340,2013-05-26 16:00:00
1:00 PM,51.8,41.0,67,30.04,15.0,NNW,19.6,26.5,N/A,,Overcast,330,2013-05-26 17:00:00
2:00 PM,51.8,39.2,62,30.04,25.0,North,21.9,31.1,N/A,Rain,Light Rain,350,2013-05-26 18:00:00
2:30 PM,53.6,37.4,54,30.04,25.0,North,18.4,29.9,N/A,,Overcast,360,2013-05-26 18:30:00
3:00 PM,53.6,37.4,54,30.04,25.0,NNE,8.1,-,N/A,,Mostly Cloudy,20,2013-05-26 19:00:00
4:00 PM,55.4,41.0,58,30.04,40.0,East,3.5,-,N/A,,Mostly Cloudy,80,2013-05-26 20:00:00
5:00 PM,57.2,44.6,63,30.04,45.0,East,6.9,-,N/A,,Mostly Cloudy,100,2013-05-26 21:00:00
6:00 PM,55.4,41.0,58,30.05,45.0,SSE,11.5,-,N/A,,Scattered Clouds,150,2013-05-26 22:00:00
7:00 PM,51.8,41.0,67,30.05,25.0,South,9.2,-,N/A,,Scattered Clouds,170,2013-05-26 23:00:00
8:00 PM,50.0,41.0,71,30.06,25.0,South,4.6,-,N/A,,Partly Cloudy,170,2013-05-27 00:00:00
9:00 PM,46.4,39.2,76,30.06,25.0,South,5.8,-,N/A,,Scattered Clouds,170,2013-05-27 01:00:00
10:00 PM,44.6,41.0,87,30.07,25.0,North,2.3,-,N/A,,Scattered Clouds,350,2013-05-27 02:00:00
11:00 PM,42.8,41.0,93,30.07,25.0,West,3.5,-,N/A,,Scattered Clouds,270,2013-05-27 03:00:00